Погода в Анапе

Погода в Анапе : погода сейчас, прогноз погоды и архив. Всё, что Вы хотите узнать о погоде в Анапе!

Поиск расширенной информации на нашем сайте:

Другие новости

Новости СМИ2

Главная страница сайта

Новости сайта

03.07.2017

Напоминаем, что на нашем специализированном сайте Метеоцентр.Азия вы можете получить высокодетализированные автоматические прогнозы погоды по пунктам России, СНГ и мира в авиационном формате (включающие направление и скорость ветра, видимость, явления погоды, количество и форму облачности, нижнюю и верхнюю границу облачности).


Погода в Анапе - сегодня

Время (UTC), дата Ветер
(°,м/с) 
Видим.   Явления Облачность Т
(°С)
Тd
(°С)
f(%) Тe
(°С)
Pmin
(гПа)
dP
(гПа)
Po
(мм)
O2
(г/м3)
Тmin Tmax R s Состояние
почвы
12 19.04.18 170 (Ю) 10 км    10/8 600 м средняя 
[Sc|Ac und]
+14.1 +11.9 87 +18  1012.6  -1.9  756  288           
18 19.04.18 200 (Ю) 10 км  {ливн. осадки}  10/10 300 м кучево-дожд. 
[Cb cap]
+13 +11.4 90 +17  1010.9  -0.1  755  288           
21 19.04.18 тихо ()   10 км  слаб. ливневой дождь  10/10 300 м кучево-дожд. 
[Cb cap]
+11.3 +9.2 87 +11  1010  -1  755  290           
06 20.04.18 340 (С) 10 км    10/10 600 м кучево-дожд. 
[Cb cap]
+11.2 +7.7 79 +11  1008.7  0.7  754  290           
09 20.04.18 320 (СЗ) 10 км  слаб. ливневой дождь  10/10 600 м кучево-дожд. 
[Cb cap]
+11 +7.7 80 +10  1010  0.7  755  291           
18 20.04.18 330 (СЗ) 10 км  {ливн. осадки}  3/0 верхняя 
[Ci fib]
+11.9 +7.6 75 +12  1013.6  1.4  757  291           
21 20.04.18 010 (С) 10 км    3/0 средняя 
[Ac trans]
+10.6 +7 78 +11  1014.3  0.6  758  293           
00 21.04.18 030 (СВ) 10 км    ясно 
+9.4 +7.3 87 +9  1014.3  758  294           
06 21.04.18 360 (С) 10 км    3/3 600 м 
[Cu hum]
+13.7 +8.6 71 +14  1016.2  1.1  759  290           
09 21.04.18 360 (С) 20000 м    5/5 600 м 
[Cu hum]
+15.8 +5.5 50 +17  1016.3  0.2  759  288           
12 21.04.18 320 (СЗ) 20000 м    1/1 600 м 
[Cu hum]
+16.7 +3.8 42 +17  1015.7  -0.6  759  288           
15 21.04.18 300 (СЗ) 20000 м    ясно 
+15.1 +5.5 53 +16  1015.5  -0.3  759  289    +17.3       
18 21.04.18 240 (ЮЗ) 10 км    ясно 
+12.8 +9.4 80 +12  1015.4  -0.1  759  290           
21 21.04.18 220 (ЮЗ) 10 км    ясно 
+12.7 +9.5 81 +12  1014.8  -0.6  758  290           
21 22.04.18 130 (ЮВ) 3{12}  10 км    ясно 
+11.9 +8.5 80 +12  1012.9  0.5  757  291           
00 23.04.18 140 (ЮВ) 10 км    ясно 
+11.4 +7.4 76 +12  1013  0.1  757  291           
03 23.04.18 170 (Ю) 9-14{14}  4000 м  дымка  8/0 верхняя 
[Ci sp]
+11.9 +10.5 91 +12  1012.5  -0.5  756  290  +11.4        сухая 
15 23.04.18 170 (Ю) 10 км    ясно 
+14.5 +11.4 82 +18  1015  0.7  758  288    +15.4       
18 23.04.18 140 (ЮВ) 10 км    ясно 
+12.3 +10.2 87 +15  1016.5  1.4  759  291           
21 23.04.18 050 (СВ) 10 км    ясно 
+9.7 +8.1 90 +11  1016.9  0.4  760  294           
00 24.04.18 050 (СВ) 4000 м  дымка  ясно 
+8.5 +7.6 94 +10  1017.6  0.7  760  296           
06 24.04.18 170 (Ю) 10 км    1/0 верхняя 
[Ci fib]
+13.5 +10.8 84 +15  1019.7  1.3  762  291           
09 24.04.18 180 (Ю) 10 км    1/0 верхняя 
[Ci fib]
+14.8 +11.4 80 +17  1020.3  1.3  762  289           
12 24.04.18 190 (Ю) 10 км    ясно 
+15.1 +11.9 81 +17  1020  -0.3  762  289           
18 24.04.18 170 (Ю) 4000 м  дымка{туман}  ясно 
+12.6 +10.8 89 +14  1018.6  -0.3  761  291           
Время (UTC), дата Ветер
(°,м/с) 
Видим.   Явления Облачность Т
(°С)
Тd
(°С)
f(%) Тe
(°С)
Pmin
(гПа)
dP
(гПа)
Po
(мм)
O2
(г/м3)
Тmin Tmax R s Состояние
почвы

Для получения пояснительной информации подведите курсор к названию столбца.

ПОГОДА в Анапе - архив

Всё, что Вы хотите узнать о погоде в Анапе - удобно и подробно!

Выберите нужную дату (начиная с 1 января 2015* года) и нажмите кнопку "Найти".
Будут отображены архивные сводки погоды по пункту Анапа, начиная с указанной даты.


Отображать данные в формате CSV (для использования в таблицах Excel)


Внимание! Наш архив погоды предназначен исключительно для личного некоммерческого использования в познавательных целях. Если Вам необходимы официальные справки о состоянии погоды (для производственных, юридических, коммерческих и т.п. целей), обращайтесь в органы Росгидромета.

*Примечание: данная дата относится к архиву по метеостанциям СССР (Россия, СНГ, Балтия).
Архив по метеостанциям Зарубежной Европы и Азии (кроме Китая) хранится 10 дней, по другим регионам земного шара (Китай, Африка, Америка, Австралия, Океания) - 1 день.

Анапа - район местоположения метеостанции


Название, широта, долгота, высота метеостанции:
Анапа (обсерватория) 44.97°ш. 37.30°д. 23 м над ур. моря [Российская Федерация]

Дополнительная информация

В oтличие oт бoльшинства пoгoдных сайтoв мы публикуем пoдрoбную метеoинфoрмацию в детальнoм прoфессиoнальнoм фoрмате.

Характеристики температуры и влажнoсти вoздуха измеряются на высoте 2 м в тени вдали oт зданий и деревьев.
Скoрoсть ветра измеряется на высoте 10 м (на урoвне рoста челoвека скoрoсть ветра ниже в 1.5-2 раза). Если метеoстанция нахoдится в гoрoде или в лесу, тo скoрoсть ветра занижена на 2-4 м/с пo сравнению с oткрытым местoм. Скoрoсть ветра над акватoриями крупных рек и oзёр, а также на вершинах хoлмoв на 2-5 м/с выше, чем в oбычных услoвиях.
Атмoсфернoе давление в разных тoчках местнoсти мoжет значительнo oтличаться oт давления на метеoстанции, в зависимoсти oт услoвий рельефа (при пoдъёме на 10 м давление пoнижается примернo на 1 мм рт.ст.).